When you browse on this site, cookies collect data to enhance your experience and personalize the content and advertising you see.
Visit our Privacy Policy to learn more. By continuing to use the site, you agree to this use of cookies and data.
  • In Hungary
  • List of Countries
  • For 7 days
  • Water Temperature
  • Satellite Maps
  • Weather Map
  • News
  • Weather Widgets
  • user-avatar
    Login

    Hourly Weather Beloit

    Today, 17 June, Monday

    Time Temperature Precipitation Wind Pressure Humidity
    00:00 +12°C° 0 mm 3 mps 739 mmHg 88%
    01:00 +11°C° 0 mm 3 mps 739 mmHg 88%
    02:00 +12°C° 0 mm 2 mps 739 mmHg 89%
    03:00 +12°C° 0 mm 2 mps 740 mmHg 90%
    04:00 +12°C° 0 mm 2 mps 740 mmHg 89%
    05:00 +13°C° 0 mm 2 mps 740 mmHg 88%
    06:00 +12°C° 0 mm 3 mps 741 mmHg 87%
    07:00 +13°C° 0 mm 3 mps 741 mmHg 86%
    08:00 +14°C° 0 mm 3 mps 741 mmHg 85%
    09:00 +16°C° 0 mm 3 mps 741 mmHg 84%
    10:00 +17°C° 0 mm 3 mps 741 mmHg 82%
    11:00 +19°C° 0 mm 3 mps 741 mmHg 80%
    12:00 +20°C° 0 mm 3 mps 741 mmHg 78%
    13:00 +21°C° 0 mm 2 mps 741 mmHg 78%
    14:00 +21°C° 0 mm 2 mps 741 mmHg 78%
    15:00 +21°C° 0 mm 2 mps 740 mmHg 79%
    16:00 +21°C° 0 mm 2 mps 740 mmHg 82%
    17:00 +20°C° 0 mm 2 mps 740 mmHg 85%
    18:00 +20°C° 0 mm 2 mps 740 mmHg 88%
    19:00 +19°C° 0 mm 2 mps 740 mmHg 90%
    20:00 +18°C° 0 mm 2 mps 740 mmHg 92%
    21:00 +17°C° 0 mm 2 mps 740 mmHg 94%
    22:00 +16°C° 0 mm 2 mps 740 mmHg 94%
    23:00 +15°C° 0 mm 2 mps 740 mmHg 94%

    Tomorrow, 18 June, Tuesday

    Time Temperature Precipitation Wind Pressure Humidity
    00:00 +15°C° 0 mm 2 mps 740 mmHg 93%
    01:00 +14°C° 0 mm 2 mps 739 mmHg 94%
    02:00 +14°C° 0 mm 2 mps 739 mmHg 94%
    03:00 +13°C° 0 mm 2 mps 739 mmHg 95%
    04:00 +14°C° 0 mm 2 mps 739 mmHg 94%
    05:00 +15°C° 0 mm 2 mps 740 mmHg 93%
    06:00 +15°C° 0 mm 2 mps 740 mmHg 92%
    07:00 +17°C° 0 mm 2 mps 740 mmHg 88%
    08:00 +19°C° 0 mm 2 mps 740 mmHg 83%
    09:00 +21°C° 0 mm 2 mps 740 mmHg 79%
    10:00 +23°C° 0 mm 2 mps 740 mmHg 77%
    11:00 +24°C° 0 mm 2 mps 739 mmHg 75%
    12:00 +25°C° 0 mm 2 mps 739 mmHg 73%
    13:00 +25°C° 0 mm 2 mps 739 mmHg 70%
    14:00 +26°C° 0 mm 1 mps 739 mmHg 68%
    15:00 +26°C° 0 mm 1 mps 738 mmHg 65%
    16:00 +26°C° 0 mm 1 mps 738 mmHg 68%
    17:00 +26°C° 0 mm 1 mps 738 mmHg 71%
    18:00 +25°C° 0 mm 1 mps 738 mmHg 74%
    19:00 +24°C° 0 mm 1 mps 737 mmHg 79%
    20:00 +21°C° 0 mm 2 mps 737 mmHg 84%
    21:00 +19°C° 0 mm 2 mps 737 mmHg 89%
    22:00 +19°C° 0 mm 2 mps 737 mmHg 90%
    23:00 +18°C° 0 mm 2 mps 737 mmHg 92%

    Day after tomorrow, 19 June, Wednesday

    Time Temperature Precipitation Wind Pressure Humidity
    00:00 +18°C° 0 mm 1 mps 736 mmHg 93%
    01:00 +18°C° 0 mm 1 mps 736 mmHg 93%
    02:00 +18°C° 0 mm 1 mps 736 mmHg 93%
    03:00 +18°C° 0 mm 1 mps 736 mmHg 92%
    04:00 +18°C° 0.1 mm 1 mps 736 mmHg 92%
    05:00 +18°C° 0.1 mm 1 mps 736 mmHg 92%
    06:00 +18°C° 0.1 mm 1 mps 736 mmHg 91%
    07:00 +18°C° 0.7 mm 1 mps 736 mmHg 92%
    08:00 +17°C° 0.7 mm 2 mps 736 mmHg 93%
    09:00 +17°C° 0.7 mm 2 mps 736 mmHg 94%
    10:00 +17°C° 0.2 mm 3 mps 736 mmHg 94%
    11:00 +18°C° 0.2 mm 3 mps 736 mmHg 94%
    12:00 +18°C° 0.2 mm 3 mps 735 mmHg 93%
    13:00 +18°C° 0.1 mm 3 mps 735 mmHg 93%
    14:00 +18°C° 0.1 mm 4 mps 735 mmHg 93%
    15:00 +18°C° 0.1 mm 4 mps 734 mmHg 93%
    16:00 +18°C° 0.1 mm 4 mps 734 mmHg 93%
    17:00 +17°C° 0.1 mm 4 mps 734 mmHg 93%
    18:00 +17°C° 0.1 mm 4 mps 733 mmHg 93%
    19:00 +17°C° 0.2 mm 4 mps 733 mmHg 94%
    20:00 +15°C° 0.2 mm 4 mps 733 mmHg 94%
    21:00 +15°C° 0.2 mm 4 mps 733 mmHg 95%
    22:00 +14°C° 0.1 mm 4 mps 732 mmHg 95%
    23:00 +14°C° 0.1 mm 4 mps 732 mmHg 95%

    20 June, Thursday

    Time Temperature Precipitation Wind Pressure Humidity
    00:00 +14°C° 0.1 mm 4 mps 732 mmHg 94%
    01:00 +14°C° 0 mm 4 mps 732 mmHg 94%
    02:00 +14°C° 0 mm 4 mps 732 mmHg 94%
    03:00 +14°C° 0 mm 3 mps 732 mmHg 93%
    04:00 +14°C° 0.1 mm 4 mps 732 mmHg 92%
    05:00 +14°C° 0.1 mm 4 mps 732 mmHg 91%
    06:00 +14°C° 0.1 mm 4 mps 732 mmHg 90%
    07:00 +15°C° 0 mm 4 mps 732 mmHg 89%
    08:00 +17°C° 0 mm 4 mps 733 mmHg 88%
    09:00 +18°C° 0 mm 4 mps 733 mmHg 87%
    10:00 +19°C° 0 mm 4 mps 733 mmHg 84%
    11:00 +21°C° 0 mm 4 mps 733 mmHg 81%
    12:00 +22°C° 0 mm 4 mps 734 mmHg 78%
    13:00 +22°C° 0.1 mm 3 mps 734 mmHg 78%
    14:00 +22°C° 0.1 mm 3 mps 734 mmHg 78%
    15:00 +22°C° 0.1 mm 3 mps 734 mmHg 78%
    16:00 +22°C° 0.1 mm 3 mps 734 mmHg 80%
    17:00 +21°C° 0.1 mm 3 mps 735 mmHg 82%
    18:00 +21°C° 0.1 mm 3 mps 735 mmHg 85%
    19:00 +19°C° 0 mm 3 mps 735 mmHg 88%
    20:00 +18°C° 0 mm 2 mps 736 mmHg 92%
    21:00 +16°C° 0 mm 2 mps 736 mmHg 95%
    22:00 +15°C° 0 mm 2 mps 736 mmHg 95%
    23:00 +15°C° 0 mm 2 mps 736 mmHg 96%

    21 June, Friday

    Time Temperature Precipitation Wind Pressure Humidity
    00:00 +14°C° 0 mm 2 mps 737 mmHg 96%
    01:00 +14°C° 0 mm 2 mps 737 mmHg 96%
    02:00 +14°C° 0 mm 2 mps 737 mmHg 96%
    03:00 +13°C° 0 mm 2 mps 737 mmHg 96%
    04:00 +14°C° 0 mm 2 mps 738 mmHg 96%
    05:00 +15°C° 0 mm 2 mps 738 mmHg 95%
    06:00 +15°C° 0 mm 2 mps 738 mmHg 94%
    07:00 +17°C° 0 mm 3 mps 739 mmHg 89%
    08:00 +19°C° 0 mm 3 mps 739 mmHg 85%
    09:00 +21°C° 0 mm 3 mps 739 mmHg 80%
    10:00 +22°C° 0 mm 3 mps 739 mmHg 77%
    11:00 +24°C° 0 mm 3 mps 740 mmHg 74%
    12:00 +26°C° 0 mm 2 mps 740 mmHg 70%
    13:00 +26°C° 0 mm 3 mps 740 mmHg 71%
    14:00 +26°C° 0 mm 3 mps 740 mmHg 72%
    15:00 +26°C° 0 mm 4 mps 739 mmHg 73%
    16:00 +25°C° 0 mm 4 mps 739 mmHg 77%
    17:00 +23°C° 0 mm 5 mps 739 mmHg 81%
    18:00 +22°C° 0 mm 5 mps 739 mmHg 85%
    19:00 +21°C° 0 mm 5 mps 739 mmHg 87%
    20:00 +20°C° 0 mm 5 mps 739 mmHg 89%
    21:00 +19°C° 0 mm 5 mps 739 mmHg 91%
    22:00 +19°C° 0 mm 5 mps 739 mmHg 91%
    23:00 +19°C° 0 mm 5 mps 738 mmHg 90%

    22 June, Saturday

    Time Temperature Precipitation Wind Pressure Humidity
    00:00 +20°C° 0 mm 6 mps 738 mmHg 90%
    01:00 +20°C° 0.8 mm 5 mps 738 mmHg 91%
    02:00 +20°C° 0.8 mm 5 mps 738 mmHg 91%
    03:00 +20°C° 0.8 mm 4 mps 737 mmHg 92%
    04:00 +20°C° 4.9 mm 5 mps 738 mmHg 94%
    05:00 +20°C° 4.9 mm 6 mps 738 mmHg 95%
    06:00 +20°C° 4.9 mm 7 mps 738 mmHg 97%
    07:00 +21°C° 0.2 mm 7 mps 738 mmHg 94%
    08:00 +22°C° 0.2 mm 8 mps 737 mmHg 92%
    09:00 +23°C° 0.2 mm 8 mps 737 mmHg 90%
    10:00 +26°C° 0 mm 7 mps 737 mmHg 87%
    11:00 +28°C° 0 mm 7 mps 737 mmHg 84%
    12:00 +29°C° 0 mm 6 mps 737 mmHg 81%
    13:00 +29°C° 0.5 mm 5 mps 737 mmHg 84%
    14:00 +29°C° 0.5 mm 5 mps 737 mmHg 86%
    15:00 +29°C° 0.5 mm 4 mps 736 mmHg 89%
    16:00 +29°C° 3.1 mm 5 mps 736 mmHg 88%
    17:00 +28°C° 3.1 mm 5 mps 735 mmHg 88%
    18:00 +28°C° 3.1 mm 6 mps 735 mmHg 88%
    19:00 +27°C° 6.8 mm 5 mps 735 mmHg 89%
    20:00 +27°C° 6.8 mm 5 mps 735 mmHg 91%
    21:00 +26°C° 6.8 mm 5 mps 734 mmHg 92%
    22:00 +26°C° 3.4 mm 5 mps 734 mmHg 93%
    23:00 +26°C° 3.4 mm 5 mps 734 mmHg 94%
    Show more